GW0500 Weather Reports


time (UTC)temp
C
wind
direction
speed
KPH
gust
KPH
rain 1hr
cm
rain 24hr
cm
rain mn
cm
humidity
%
barometer
mb
20260901133548 13 0 0.0 0.0 0.00 0.00 0.00 34 1020.3
20260901133059 13 0 0.0 0.0 0.00 0.00 0.00 35 1020.3
20260901132545 13 0 0.0 0.0 0.00 0.00 0.00 35 1020.2
20260901132047 13 0 0.0 0.0 0.00 0.00 0.00 35 1020.3
20260901131603 13 0 0.0 1.6 0.00 0.00 0.00 34 1020.3
20260901131049 13 0 0.0 1.6 0.00 0.00 0.00 34 1020.2
20260901130547 13 0 0.0 1.6 0.00 0.00 0.00 35 1020.3
20260901130108 13 0 0.0 1.6 0.00 0.00 0.00 33 1020.2
20260901125546 13 0 0.0 1.6 0.00 0.00 0.00 32 1020.2
20260901125049 13 0 0.0 1.6 0.00 0.00 0.00 34 1020.2
20260901124600 13 0 0.0 1.6 0.00 0.00 0.00 34 1020.2
20260901124049 13 0 0.0 1.6 0.00 0.00 0.00 33 1020.1
20260901123548 13 0 0.0 0.0 0.00 0.00 0.00 38 1020.2
20260901123122 13 0 0.0 1.6 0.00 0.00 0.00 35 1020.1
20260901122548 13 0 0.0 1.6 0.00 0.00 0.00 36 1020.2
20260901122049 13 0 0.0 0.0 0.00 0.00 0.00 38 1020.2
20260901121608 13 0 0.0 0.0 0.00 0.00 0.00 38 1020.0
20260901121047 13 0 0.0 0.0 0.00 0.00 0.00 36 1020.1
20260901120548 13 0 0.0 1.6 0.00 0.00 0.00 36 1020.1
20260901120105 13 0 0.0 1.6 0.00 0.00 0.00 36 1020.1
20260901115545 13 0 0.0 1.6 0.00 0.00 0.00 37 1020.1
20260901115045 13 0 0.0 1.6 0.00 0.00 0.00 37 1020.0
20260901114602 13 0 0.0 1.6 0.00 0.00 0.00 36 1020.1
20260901114045 13 0 0.0 1.6 0.00 0.00 0.00 36 1020.0
20260901113545 13 0 0.0 0.0 0.00 0.00 0.00 35 1020.0
20260901113107 13 0 0.0 1.6 0.00 0.00 0.00 34 1019.9
20260901112547 13 0 0.0 1.6 0.00 0.00 0.00 34 1020.0
20260901112046 13 194 0.0 1.6 0.00 0.00 0.00 34 1020.0
20260901111610 13 0 0.0 0.0 0.00 0.00 0.00 34 1020.1
20260901111050 13 0 0.0 0.0 0.00 0.00 0.00 34 1020.0
20260901110545 13 0 0.0 0.0 0.00 0.00 0.00 34 1020.1
20260901110115 13 0 0.0 0.0 0.00 0.00 0.00 35 1020.0
20260901105549 13 0 0.0 0.0 0.00 0.00 0.00 35 1020.0
20260901105045 13 0 0.0 0.0 0.00 0.00 0.00 34 1020.1
20260901104603 13 0 0.0 0.0 0.00 0.00 0.00 35 1020.2
20260901104048 13 0 0.0 1.6 0.00 0.00 0.00 36 1020.1
20260901103546 13 0 0.0 1.6 0.00 0.00 0.00 37 1020.2
20260901103111 13 0 0.0 3.2 0.00 0.00 0.00 37 1020.3
20260901102547 13 0 0.0 3.2 0.00 0.00 0.00 37 1020.3
20260901102048 13 0 0.0 0.0 0.00 0.00 0.00 37 1020.3
20260901101603 13 0 0.0 1.6 0.00 0.00 0.00 38 1020.3
20260901101047 13 0 0.0 1.6 0.00 0.00 0.00 38 1020.3
20260901100549 13 0 0.0 0.0 0.00 0.00 0.00 38 1020.4
20260901100113 13 0 0.0 0.0 0.00 0.00 0.00 38 1020.4
20260901095549 13 0 0.0 0.0 0.00 0.00 0.00 39 1020.5
20260901095045 13 0 0.0 0.0 0.00 0.00 0.00 39 1020.5
20260901094601 13 0 0.0 0.0 0.00 0.00 0.00 39 1020.5
20260901094046 13 0 0.0 0.0 0.00 0.00 0.00 41 1020.5
20260901093547 13 0 0.0 0.0 0.00 0.00 0.00 40 1020.5
20260901093111 13 0 0.0 0.0 0.00 0.00 0.00 39 1020.4
20260901092545 13 0 0.0 0.0 0.00 0.00 0.00 40 1020.5
20260901092049 13 0 0.0 0.0 0.00 0.00 0.00 40 1020.5
20260901091613 13 0 0.0 0.0 0.00 0.00 0.00 41 1020.5
20260901091045 13 0 0.0 0.0 0.00 0.00 0.00 41 1020.3
20260901090545 13 0 0.0 0.0 0.00 0.00 0.00 41 1020.3
20260901090108 13 0 0.0 0.0 0.00 0.00 0.00 41 1020.4
20260901085545 13 0 0.0 0.0 0.00 0.00 0.00 42 1020.4
20260901085049 13 0 0.0 0.0 0.00 0.00 0.00 43 1020.4
20260901084604 13 0 0.0 0.0 0.00 0.00 0.00 43 1020.5
20260901084047 13 0 0.0 0.0 0.00 0.00 0.00 44 1020.5
20260901083549 13 0 0.0 0.0 0.00 0.00 0.00 45 1020.5
20260901083106 13 0 0.0 0.0 0.00 0.00 0.00 45 1020.6
20260901082546 13 0 0.0 0.0 0.00 0.00 0.00 43 1020.6
20260901082051 13 0 0.0 0.0 0.00 0.00 0.00 42 1020.6
20260901081606 13 0 0.0 0.0 0.00 0.00 0.00 41 1020.6
20260901081048 14 0 0.0 0.0 0.00 0.00 0.00 40 1020.7
20260901080546 14 0 0.0 0.0 0.00 0.00 0.00 39 1020.7
20260901080104 14 0 0.0 0.0 0.00 0.00 0.00 39 1020.8
20260901075547 14 0 0.0 1.6 0.00 0.00 0.00 39 1020.8
20260901075049 14 0 0.0 1.6 0.00 0.00 0.00 38 1020.8
20260901074601 14 0 0.0 1.6 0.00 0.00 0.00 38 1020.8
20260901074047 14 0 0.0 0.0 0.00 0.00 0.00 38 1020.8
20260901073635 14 0 0.0 0.0 0.00 0.00 0.00 37 1020.8
20260901073102 14 0 0.0 0.0 0.00 0.00 0.00 38 1020.8
20260901072547 14 0 0.0 0.0 0.00 0.00 0.00 38 1020.8
20260901072046 14 0 0.0 1.6 0.00 0.00 0.00 38 1020.8
20260901071603 14 0 0.0 1.6 0.00 0.00 0.00 39 1020.8
20260901071045 14 0 0.0 0.0 0.00 0.00 0.00 39 1020.9
20260901070545 14 0 0.0 0.0 0.00 0.00 0.00 39 1020.8
20260901070109 14 0 0.0 0.0 0.00 0.00 0.00 40 1020.8
20260901065547 14 0 0.0 1.6 0.00 0.00 0.00 40 1020.8
20260901065047 14 0 0.0 1.6 0.00 0.00 0.00 39 1020.8
20260901064609 14 0 0.0 1.6 0.00 0.00 0.00 39 1020.8
20260901064049 14 0 0.0 1.6 0.00 0.00 0.00 38 1020.9
20260901063544 14 0 0.0 1.6 0.00 0.00 0.00 37 1021.0
20260901063108 14 0 0.0 0.0 0.00 0.00 0.00 36 1021.0
20260901062551 14 0 0.0 1.6 0.00 0.00 0.00 35 1020.8
20260901062047 14 0 0.0 1.6 0.00 0.00 0.00 35 1020.9
20260901061609 13 0 0.0 0.0 0.00 0.00 0.00 34 1020.8
20260901061047 13 0 0.0 0.0 0.00 0.00 0.00 34 1020.9
20260901060543 14 0 0.0 1.6 0.00 0.00 0.00 34 1020.9
20260901060107 14 0 0.0 1.6 0.00 0.00 0.00 34 1020.8
20260901055544 14 0 0.0 0.0 0.00 0.00 0.00 33 1020.8
20260901055047 14 0 0.0 1.6 0.00 0.00 0.00 34 1020.8
20260901054608 14 0 0.0 1.6 0.00 0.00 0.00 35 1020.8
20260901054048 14 0 0.0 0.0 0.00 0.00 0.00 34 1020.9
20260901053547 14 0 0.0 0.0 0.00 0.00 0.00 34 1020.9
20260901053157 14 0 0.0 0.0 0.00 0.00 0.00 35 1021.0
20260901052547 14 0 0.0 0.0 0.00 0.00 0.00 33 1021.0
20260901052050 14 0 0.0 0.0 0.00 0.00 0.00 35 1020.9
20260901051607 14 0 0.0 1.6 0.00 0.00 0.00 36 1021.0
20260901051047 14 0 0.0 1.6 0.00 0.00 0.00 36 1020.9
20260901050552 14 0 0.0 1.6 0.00 0.00 0.00 36 1020.9
20260901045549 14 0 0.0 0.0 0.00 0.00 0.00 36 1020.9
20260901045044 14 0 0.0 0.0 0.00 0.00 0.00 36 1020.8
20260901044621 14 0 0.0 0.0 0.00 0.00 0.00 37 1020.9
20260901044049 15 0 0.0 0.0 0.00 0.00 0.00 38 1021.0
20260901043547 15 0 0.0 0.0 0.00 0.00 0.00 38 1021.0
20260901043103 15 0 0.0 0.0 0.00 0.00 0.00 40 1021.0
20260901042546 15 0 0.0 0.0 0.00 0.00 0.00 41 1021.0
20260901042047 15 0 0.0 0.0 0.00 0.00 0.00 42 1021.0
20260901041606 15 0 0.0 0.0 0.00 0.00 0.00 44 1020.9
20260901041047 15 0 0.0 1.6 0.00 0.00 0.00 46 1020.9
20260901040545 15 0 0.0 1.6 0.00 0.00 0.00 48 1020.8
20260901040109 15 0 0.0 0.0 0.00 0.00 0.00 52 1020.8
20260901035550 16 0 0.0 0.0 0.00 0.00 0.00 55 1020.8
20260901035048 16 0 0.0 0.0 0.00 0.00 0.00 59 1020.6
20260901034602 16 0 0.0 3.2 0.00 0.00 0.00 57 1020.6
20260901034047 16 0 0.0 3.2 0.00 0.00 0.00 58 1020.5
20260901033548 16 0 0.0 1.6 0.00 0.00 0.00 59 1020.4
20260901033102 16 0 0.0 0.0 0.00 0.00 0.00 60 1020.3
20260901032547 16 0 0.0 0.0 0.00 0.00 0.00 58 1020.3
20260901032048 16 0 0.0 0.0 0.00 0.00 0.00 58 1020.3
20260901031602 16 0 0.0 0.0 0.00 0.00 0.00 58 1020.3
20260901031044 17 0 0.0 0.0 0.00 0.00 0.00 57 1020.3
20260901030551 17 0 0.0 0.0 0.00 0.00 0.00 57 1020.3
20260901030104 17 0 0.0 0.0 0.00 0.00 0.00 56 1020.2
20260901025545 17 0 0.0 0.0 0.00 0.00 0.00 56 1020.2
20260901025048 17 0 0.0 0.0 0.00 0.00 0.00 56 1020.2
20260901024609 18 0 0.0 0.0 0.00 0.00 0.00 55 1020.0
20260901024046 18 0 0.0 0.0 0.00 0.00 0.00 55 1020.0
20260901023548 18 0 0.0 0.0 0.00 0.00 0.00 54 1020.0
20260901023106 18 0 0.0 0.0 0.00 0.00 0.00 53 1019.9
20260901022547 18 0 0.0 1.6 0.00 0.00 0.00 53 1019.9
20260901022045 19 0 0.0 1.6 0.00 0.00 0.00 53 1019.8
20260901021607 19 0 0.0 0.0 0.00 0.00 0.00 53 1019.7
20260901021045 20 0 0.0 0.0 0.00 0.00 0.00 52 1019.6
20260901020545 20 0 0.0 0.0 0.00 0.00 0.00 52 1019.5
20260901020105 20 0 0.0 6.4 0.00 0.00 0.00 52 1019.5
20260901015549 20 0 0.0 6.4 0.00 0.00 0.00 52 1019.5
20260901015047 20 0 0.0 6.4 0.00 0.00 0.00 51 1019.6
20260901014607 20 0 0.0 6.4 0.00 0.00 0.00 51 1019.6
20260901014047 21 178 0.0 8.0 0.00 0.00 0.00 51 1019.6
20260901013632 21 171 1.6 9.7 0.00 0.00 0.00 50 1019.6
20260901013547 21 171 1.6 9.7 0.00 0.00 0.00 50 1019.6
20260901013106 21 0 1.6 11.3 0.00 0.00 0.00 50 1019.7
20260901012626 21 186 1.6 11.3 0.00 0.00 0.00 50 1019.6
20260901012045 21 182 0.0 6.4 0.00 0.00 0.00 50 1019.6
20260901011626 21 0 0.0 4.8 0.00 0.00 0.00 52 1019.6
20260901011047 21 0 0.0 4.8 0.00 0.00 0.00 50 1019.6
20260901010547 22 0 0.0 4.8 0.00 0.00 0.00 50 1019.5
20260901010112 22 0 0.0 14.5 0.00 0.00 0.00 50 1019.5
20260901005547 22 259 3.2 14.5 0.00 0.00 0.00 50 1019.6
20260901005047 22 185 1.6 9.7 0.00 0.00 0.00 49 1019.6
20260901004611 22 159 1.6 8.0 0.00 0.00 0.00 49 1019.6
20260901004045 23 84 3.2 8.0 0.00 0.00 0.00 48 1019.7
20260901003624 23 158 1.6 14.5 0.00 0.00 0.00 49 1019.7
20260901003545 23 158 1.6 14.5 0.00 0.00 0.00 49 1019.7
20260901003110 23 137 1.6 14.5 0.00 0.00 0.00 50 1019.7
20260901002544 23 0 1.6 9.7 0.00 0.00 0.00 49 1019.8
20260901002050 23 216 1.6 9.7 0.00 0.00 0.00 49 1019.9
20260901001601 23 305 4.8 12.9 0.00 0.00 0.00 49 1019.8
20260901001048 23 203 4.8 14.5 0.00 0.00 0.00 49 1019.8
20260901000547 23 189 6.4 14.5 0.00 0.00 0.00 49 1019.8
20260831235547 24 156 3.2 12.9 0.00 0.00 0.00 48 1019.9
20260831235047 24 89 4.8 12.9 0.00 0.00 0.00 48 1020.0
20260831234605 24 109 3.2 11.3 0.00 0.00 0.00 49 1019.9
20260831234047 25 161 3.2 11.3 0.00 0.00 0.00 47 1020.0
20260831233547 25 165 3.2 14.5 0.00 0.00 0.00 47 1019.9
20260831233104 25 156 4.8 14.5 0.00 0.00 0.00 46 1019.9
20260831232546 25 156 3.2 14.5 0.00 0.00 0.00 46 1019.9
20260831232047 25 147 3.2 14.5 0.00 0.00 0.00 46 1019.9
20260831231601 25 182 1.6 12.9 0.00 0.00 0.00 45 1019.9
20260831231048 26 220 3.2 11.3 0.00 0.00 0.00 45 1019.9
20260831230548 26 188 1.6 9.7 0.00 0.00 0.00 45 1020.0
20260831230108 26 227 3.2 12.9 0.00 0.00 0.00 45 1020.2
20260831225547 25 228 4.8 17.7 0.00 0.00 0.00 45 1020.0
20260831225048 26 113 4.8 17.7 0.00 0.00 0.00 44 1020.2
20260831224602 26 179 1.6 16.1 0.00 0.00 0.00 45 1020.2
20260831224048 26 166 4.8 16.1 0.00 0.00 0.00 45 1020.2
20260831223548 26 0 1.6 14.5 0.00 0.00 0.00 45 1020.0
20260831223107 26 186 3.2 14.5 0.00 0.00 0.00 45 1020.2
20260831222549 26 146 3.2 14.5 0.00 0.00 0.00 46 1020.2
20260831222048 26 117 4.8 14.5 0.00 0.00 0.00 45 1020.2
20260831221606 26 339 3.2 17.7 0.00 0.00 0.00 45 1020.3
20260831221047 26 202 4.8 17.7 0.00 0.00 0.00 43 1020.3
20260831220547 26 192 3.2 14.5 0.00 0.00 0.00 44 1020.3
20260831220113 26 201 4.8 14.5 0.00 0.00 0.00 45 1020.1
20260831215546 26 229 4.8 16.1 0.00 0.00 0.00 43 1020.2
20260831215047 26 203 4.8 16.1 0.00 0.00 0.00 42 1020.3
20260831214627 26 170 4.8 16.1 0.00 0.00 0.00 41 1020.3
20260831214048 26 160 4.8 17.7 0.00 0.00 0.00 41 1020.3
20260831213547 26 150 4.8 17.7 0.00 0.00 0.00 41 1020.3
20260831213102 26 197 4.8 17.7 0.00 0.00 0.00 40 1020.4
20260831212544 27 142 3.2 17.7 0.00 0.00 0.00 38 1020.5
20260831212046 27 214 3.2 19.3 0.00 0.00 0.00 37 1020.6
20260831211604 27 198 4.8 19.3 0.00 0.00 0.00 36 1020.7
20260831211049 27 168 4.8 14.5 0.00 0.00 0.00 34 1020.6
20260831210550 27 79 3.2 12.9 0.00 0.00 0.00 35 1020.6
20260831210109 27 188 1.6 12.9 0.00 0.00 0.00 36 1020.7
20260831205548 26 146 4.8 12.9 0.00 0.00 0.00 36 1020.8
20260831205045 26 204 3.2 17.7 0.00 0.00 0.00 37 1020.7
20260831204635 26 136 4.8 17.7 0.00 0.00 0.00 34 1021.0
20260831204050 27 215 4.8 17.7 0.00 0.00 0.00 33 1021.0
20260831203549 27 294 3.2 11.3 0.00 0.00 0.00 34 1021.0
20260831203108 27 138 3.2 16.1 0.00 0.00 0.00 36 1021.1
20260831202545 27 0 3.2 16.1 0.00 0.00 0.00 34 1021.1
20260831202048 26 169 1.6 22.5 0.00 0.00 0.00 36 1021.1
20260831201602 26 334 4.8 22.5 0.00 0.00 0.00 36 1021.1
20260831201048 26 169 4.8 16.1 0.00 0.00 0.00 34 1021.0
20260831200550 26 165 4.8 16.1 0.00 0.00 0.00 35 1021.1
20260831200107 26 135 4.8 12.9 0.00 0.00 0.00 34 1021.1
20260831195549 26 173 3.2 12.9 0.00 0.00 0.00 33 1021.0
20260831195050 26 237 3.2 14.5 0.00 0.00 0.00 34 1021.0
20260831194559 26 102 1.6 17.7 0.00 0.00 0.00 35 1021.0
20260831194050 26 221 4.8 17.7 0.00 0.00 0.00 33 1021.2
20260831193551 26 144 4.8 9.7 0.00 0.00 0.00 35 1021.2
20260831193103 26 78 3.2 16.1 0.00 0.00 0.00 37 1021.1
20260831192549 26 181 6.4 19.3 0.00 0.00 0.00 34 1021.2
20260831192047 26 360 4.8 19.3 0.00 0.00 0.00 34 1021.2
20260831191601 26 194 4.8 20.9 0.00 0.00 0.00 36 1021.2
20260831191050 26 213 4.8 20.9 0.00 0.00 0.00 35 1021.3
20260831190548 25 164 6.4 17.7 0.00 0.00 0.00 34 1021.2
20260831190113 25 171 4.8 17.7 0.00 0.00 0.00 33 1021.3
20260831185547 25 118 3.2 12.9 0.00 0.00 0.00 35 1021.1
20260831185047 26 144 4.8 12.9 0.00 0.00 0.00 34 1021.3
20260831184605 25 147 3.2 11.3 0.00 0.00 0.00 34 1021.3
20260831184047 25 204 3.2 19.3 0.00 0.00 0.00 33 1021.1
20260831183546 25 215 4.8 19.3 0.00 0.00 0.00 34 1021.1
20260831183105 25 188 4.8 16.1 0.00 0.00 0.00 32 1021.2
20260831182546 25 224 4.8 11.3 0.00 0.00 0.00 29 1021.2
20260831182045 25 126 3.2 19.3 0.00 0.00 0.00 31 1021.1
20260831181600 25 148 1.6 19.3 0.00 0.00 0.00 31 1021.1
20260831181046 24 147 3.2 19.3 0.00 0.00 0.00 32 1021.1
20260831180547 24 65 4.8 20.9 0.00 0.00 0.00 30 1021.0
20260831180104 24 158 4.8 20.9 0.00 0.00 0.00 30 1021.1
20260831175546 24 17 3.2 9.7 0.00 0.00 0.00 32 1021.0
20260831175048 24 186 3.2 9.7 0.00 0.00 0.00 33 1021.1
20260831174610 24 175 1.6 11.3 0.00 0.00 0.00 30 1020.9
20260831174046 24 0 3.2 11.3 0.00 0.00 0.00 34 1021.0
20260831173549 23 140 1.6 12.9 0.00 0.00 0.00 32 1021.0
20260831173103 23 128 4.8 12.9 0.00 0.00 0.00 32 1020.9
20260831172547 23 302 3.2 12.9 0.00 0.00 0.00 31 1021.0
20260831172045 23 119 1.6 9.7 0.00 0.00 0.00 29 1020.8
20260831171600 23 132 1.6 9.7 0.00 0.00 0.00 31 1021.0
20260831171047 23 159 1.6 11.3 0.00 0.00 0.00 28 1020.9
20260831170546 23 146 3.2 14.5 0.00 0.00 0.00 30 1020.8
20260831170105 23 185 1.6 16.1 0.00 0.00 0.00 28 1020.7
20260831165546 23 141 3.2 16.1 0.00 0.00 0.00 26 1020.6
20260831165046 23 192 4.8 14.5 0.00 0.00 0.00 27 1020.7
20260831164609 23 158 1.6 9.7 0.00 0.00 0.00 30 1020.6
20260831164049 23 159 1.6 14.5 0.00 0.00 0.00 25 1020.7
20260831163545 22 0 0.0 14.5 0.00 0.00 0.00 24 1020.6
20260831163104 22 172 3.2 14.5 0.00 0.00 0.00 26 1020.6
20260831162548 22 131 1.6 11.3 0.00 0.00 0.00 23 1020.6
20260831162049 22 152 1.6 11.3 0.00 0.00 0.00 28 1020.6
20260831161601 22 157 3.2 11.3 0.00 0.00 0.00 22 1020.6
20260831161047 22 179 0.0 8.0 0.00 0.00 0.00 26 1020.6
20260831160547 21 0 1.6 8.0 0.00 0.00 0.00 25 1020.5
20260831160106 21 208 0.0 3.2 0.00 0.00 0.00 23 1020.3
20260831155548 20 0 0.0 8.0 0.00 0.00 0.00 24 1020.3
20260831155048 20 0 0.0 8.0 0.00 0.00 0.00 26 1020.3
20260831154633 19 0 0.0 6.4 0.00 0.00 0.00 27 1020.2
20260831154048 18 0 0.0 6.4 0.00 0.00 0.00 29 1020.2
20260831153547 17 46 1.6 6.4 0.00 0.00 0.00 30 1020.2
20260831153102 17 0 1.6 6.4 0.00 0.00 0.00 30 1020.3
20260831152551 16 326 1.6 4.8 0.00 0.00 0.00 33 1020.3
20260831152046 16 50 0.0 4.8 0.00 0.00 0.00 34 1020.2
20260831151605 16 0 1.6 4.8 0.00 0.00 0.00 34 1020.1
20260831151046 16 42 0.0 4.8 0.00 0.00 0.00 35 1020.1
20260831150544 15 42 0.0 0.0 0.00 0.00 0.00 35 1020.0
20260831145544 15 0 0.0 0.0 0.00 0.00 0.00 35 1020.0
20260831145045 15 0 0.0 0.0 0.00 0.00 0.00 35 1020.0
20260831144604 15 0 0.0 0.0 0.00 0.00 0.00 35 1020.0
20260831144049 15 0 0.0 0.0 0.00 0.00 0.00 36 1020.0
20260831143547 15 0 0.0 1.6 0.00 0.00 0.00 35 1019.9
20260831143110 15 0 0.0 1.6 0.00 0.00 0.00 35 1019.8
20260831142617 15 0 0.0 1.6 0.00 0.00 0.00 36 1019.8
20260831142047 15 0 0.0 1.6 0.00 0.00 0.00 36 1019.6
20260831141603 15 0 0.0 1.6 0.00 0.00 0.00 35 1019.6
20260831141046 15 0 0.0 1.6 0.00 0.00 0.00 35 1019.4
20260831140547 15 0 0.0 0.0 0.00 0.00 0.00 35 1019.4
20260831140101 15 0 0.0 0.0 0.00 0.00 0.00 35 1019.3
20260831135548 15 0 0.0 1.6 0.00 0.00 0.00 34 1019.3
20260831135047 15 0 0.0 3.2 0.00 0.00 0.00 34 1019.2
20260831134604 15 0 0.0 3.2 0.00 0.00 0.00 35 1019.1
20260831134047 15 0 0.0 1.6 0.00 0.00 0.00 35 1019.0